Location: Unspecified
(0.0000°N, 0.0000°E)
Time: 01:02:37
(UTC+00:00)

STARLINK-1043 - Pass Details

Date: 15 January 2020
Orbit: 549 x 550 km, 53.0° (Epoch: 13 August)

Event Time Altitude Azimuth Distance (km) Brightness Sun altitude
Rises 19:45:21 0° 320° (NW) 2,693 7.4 -22.3°
Reaches altitude 10° 19:47:35 10° 316° (NW) 1,806 6.5 -22.8°
Maximum altitude 19:51:38 60° 236° (WSW) 629 4.1 -23.7°
Enters shadow 19:54:00 24° 163° (SSE) 1,170 5.3 -24.3°
